Ушаковское

Россия / Чукотский автономный округ     70°58′53″N   178°28′50″W
темп.,
°C
ветер,
м/с
пор.,
м/с
влажн.,
%
обл.,
%
осадки,
мм/ч
давл.,
гПа
погр.,
м
7 мая, пт
пт700:00−10ссв119858 0.0 102610
03:00−11св119547 0.0 102611
06:00−9всв128613 0.0 102520
09:00−6всв236912 0.0 1024111
12:00−5всв346620 0.0 1024159
15:00−4всв34735 0.0 1023219
18:00−6св33865 0.0 102347
21:00−9св22915 0.0 102318
8 мая, сб
сб800:00−11св229452 0.0 102417
03:00−12св229647 0.0 102419
06:00−10св238855 0.0 102442
09:00−7всв347268 0.0 1024164
12:00−5всв356960 0.0 1024233
15:00−3всв357451 0.0 1024276
18:00−5ссв338471 0.0 102442
21:00−8ссв328767 0.0 102516
9 мая, вс
вс900:00−10с229121 0.0 102416
03:00−11ссв228912 0.0 102516
06:00−8ссв23845 0.0 102529
09:00−5св35755 0.0 1025204
12:00−3св46685 0.0 1025316
15:00−2св47710 0.0 1024375
18:00−4ссв45865 0.0 102578
21:00−8ссв339313 0.0 102521
10 мая, пн
пн1000:00−10ссв339541 0.0 102518
03:00−10ссв3394100 0.0 102528
06:00−8ссв3589100 0.0 1025115
09:00−6всв4780100 0.0 1024380
12:00−5всв468370 0.0 1023457
15:00−4всв5785100 0.1 1023684
18:00−5всв3593100 0.3 1022438
21:00−6всв2296100 0.1 102249
11 мая, вт
вт1100:00−6в1197100 0.3 102117
03:00−7св119791 0.1 102113
06:00−7в019473 0.1 102168
09:00−5ююв1181100 0.0 1021416
12:00−4вюв1177100 0.0 1021449
15:00−3вюв228078 0.0 1021431
18:00−3в128575 0.0 1021296
21:00−5ссв229281 0.0 102125